DKH8888 ZSSS-ZSPD

Flight info

Callsign DKH8888
Flight time 0h 14m
Altitude 5900
Route PK/K0498S0150 DCT JTN DCT PDL
Aircraft A20N/M-SDE2E3FGHIRWXY/LB1

Departure

Time 2026-05-05 23:02
Airport Shanghai Hongqiao International Airport (ZSSS)

Arrival

Time 2026-05-05 23:16
Airport Shanghai Pudong International Airport (ZSPD)
Time Latitude Longitude Altitude Speed Heading
2026-05-05 22:40 31.20725 121.32732 16 ft 0 kts 267°
2026-05-05 22:54 31.20725 121.32735 16 ft 2 kts 267°
2026-05-05 22:54 31.20726 121.32752 17 ft 2 kts 267°
2026-05-05 22:54 31.20726 121.32770 17 ft 2 kts 267°
2026-05-05 22:54 31.20727 121.32787 17 ft 2 kts 267°
2026-05-05 22:55 31.20727 121.32805 17 ft 2 kts 267°
2026-05-05 22:55 31.20728 121.32822 17 ft 2 kts 267°
2026-05-05 22:55 31.20729 121.32839 17 ft 2 kts 269°
2026-05-05 22:55 31.20727 121.32857 17 ft 2 kts 284°
2026-05-05 22:56 31.20723 121.32873 17 ft 2 kts 295°
2026-05-05 22:56 31.20715 121.32888 17 ft 2 kts 307°
2026-05-05 22:56 31.20705 121.32901 17 ft 2 kts 319°
2026-05-05 22:56 31.20693 121.32912 17 ft 2 kts 330°
2026-05-05 22:57 31.20679 121.32918 17 ft 2 kts 342°
2026-05-05 22:57 31.20665 121.32923 17 ft 1 kts 353°
2026-05-05 22:57 31.20658 121.32923 17 ft 1 kts 359°
2026-05-05 22:57 31.20656 121.32923 17 ft 0 kts 358°
2026-05-05 22:59 31.20705 121.32968 19 ft 15 kts 61°
2026-05-05 22:59 31.20834 121.32997 19 ft 25 kts 357°
2026-05-05 22:59 31.21036 121.32987 19 ft 29 kts 356°
2026-05-05 23:00 31.21290 121.33019 19 ft 11 kts 83°
2026-05-05 23:00 31.21290 121.33029 19 ft 0 kts 88°
2026-05-05 23:01 31.21291 121.33074 19 ft 14 kts 87°
2026-05-05 23:01 31.21250 121.33164 19 ft 12 kts 170°
2026-05-05 23:02 31.21226 121.33167 19 ft 4 kts 175°
2026-05-05 23:02 31.20877 121.33186 19 ft 101 kts 177°
2026-05-05 23:02 31.19951 121.33246 406 ft 146 kts 175°
2026-05-05 23:02 31.18990 121.33308 1441 ft 142 kts 175°
2026-05-05 23:03 31.18082 121.33508 2341 ft 146 kts 149°
2026-05-05 23:03 31.17488 121.34514 3051 ft 167 kts 105°
2026-05-05 23:03 31.17681 121.35913 3760 ft 193 kts 65°
2026-05-05 23:03 31.18385 121.37305 4563 ft 210 kts 67°
2026-05-05 23:04 31.18592 121.39002 5296 ft 218 kts 95°
2026-05-05 23:04 31.18499 121.40762 5629 ft 222 kts 83°
2026-05-05 23:04 31.19195 121.42355 5844 ft 226 kts 41°
2026-05-05 23:04 31.20614 121.43147 5909 ft 237 kts 15°
2026-05-05 23:05 31.22295 121.43757 5912 ft 266 kts 21°
2026-05-05 23:05 31.23988 121.44657 5905 ft 273 kts 28°
2026-05-05 23:05 31.25643 121.45770 5903 ft 275 kts 32°
2026-05-05 23:05 31.27254 121.46999 5902 ft 275 kts 35°
2026-05-05 23:06 31.28831 121.48280 5813 ft 275 kts 36°
2026-05-05 23:06 31.30383 121.49583 5689 ft 275 kts 37°
2026-05-05 23:06 31.31924 121.50897 5569 ft 274 kts 37°
2026-05-05 23:06 31.33467 121.52220 5449 ft 275 kts 37°
2026-05-05 23:07 31.35007 121.53545 5329 ft 274 kts 37°
2026-05-05 23:07 31.36548 121.54875 5218 ft 274 kts 37°
2026-05-05 23:07 31.38080 121.56196 5077 ft 274 kts 37°
2026-05-05 23:07 31.39612 121.57517 4926 ft 273 kts 37°
2026-05-05 23:08 31.41111 121.58846 4900 ft 269 kts 43°
2026-05-05 23:08 31.42106 121.60577 4811 ft 252 kts 74°
2026-05-05 23:08 31.42178 121.62566 4522 ft 243 kts 105°
2026-05-05 23:08 31.41390 121.64243 4268 ft 235 kts 134°
2026-05-05 23:09 31.40216 121.65531 4025 ft 228 kts 138°
2026-05-05 23:09 31.39075 121.66791 3766 ft 220 kts 136°
2026-05-05 23:09 31.38053 121.68041 3520 ft 206 kts 133°
2026-05-05 23:09 31.37131 121.69258 3353 ft 191 kts 132°
2026-05-05 23:10 31.36294 121.70403 3150 ft 181 kts 134°
2026-05-05 23:10 31.35347 121.71275 2981 ft 169 kts 152°
2026-05-05 23:10 31.34315 121.71764 2958 ft 150 kts 161°
2026-05-05 23:10 31.33381 121.72117 2940 ft 132 kts 162°
2026-05-05 23:11 31.32541 121.72424 2941 ft 123 kts 162°
2026-05-05 23:11 31.31727 121.72723 2958 ft 122 kts 162°
2026-05-05 23:11 31.30915 121.73023 2962 ft 123 kts 162°
2026-05-05 23:11 31.30093 121.73330 2833 ft 121 kts 162°
2026-05-05 23:12 31.29293 121.73629 2698 ft 122 kts 162°
2026-05-05 23:12 31.28480 121.73939 2545 ft 122 kts 161°
2026-05-05 23:12 31.27666 121.74254 2392 ft 122 kts 162°
2026-05-05 23:12 31.26854 121.74551 2233 ft 122 kts 162°
2026-05-05 23:13 31.26052 121.74854 2060 ft 121 kts 162°
2026-05-05 23:13 31.25244 121.75166 1898 ft 121 kts 161°
2026-05-05 23:13 31.24451 121.75471 1750 ft 121 kts 163°
2026-05-05 23:13 31.23640 121.75768 1568 ft 121 kts 163°
2026-05-05 23:14 31.22837 121.76052 1395 ft 120 kts 163°
2026-05-05 23:14 31.22041 121.76346 1249 ft 120 kts 162°
2026-05-05 23:14 31.21243 121.76660 1095 ft 120 kts 161°
2026-05-05 23:14 31.20460 121.76956 918 ft 119 kts 161°
2026-05-05 23:15 31.19664 121.77255 772 ft 119 kts 161°
2026-05-05 23:15 31.18876 121.77561 602 ft 118 kts 160°
2026-05-05 23:15 31.18098 121.77850 451 ft 118 kts 161°
2026-05-05 23:15 31.17314 121.78150 290 ft 117 kts 161°
2026-05-05 23:16 31.16543 121.78439 142 ft 115 kts 161°
2026-05-05 23:16 31.15771 121.78728 30 ft 112 kts 161°
2026-05-05 23:16 31.15147 121.78970 22 ft 71 kts 160°
2026-05-05 23:16 31.14817 121.79102 23 ft 39 kts 159°
2026-05-05 23:17 31.14569 121.79199 22 ft 34 kts 151°
2026-05-05 23:17 31.14438 121.79321 24 ft 19 kts 131°
2026-05-05 23:17 31.14358 121.79438 24 ft 17 kts 118°
2026-05-05 23:17 31.14377 121.79574 25 ft 17 kts 72°
2026-05-05 23:18 31.14418 121.79721 27 ft 16 kts 72°
2026-05-05 23:18 31.14490 121.79787 30 ft 12 kts 11°
2026-05-05 23:18 31.14529 121.79829 32 ft 6 kts 70°
2026-05-05 23:18 31.14544 121.79880 32 ft 5 kts 71°
2026-05-05 23:19 31.14546 121.79889 32 ft 0 kts 72°